Regional Weather Roundup
Issued by NWS Sioux Falls, SD

Home | Current Version | Previous Version | Text Only | Print | Product List | Glossary On
Versions: 1 2 3 4 5 6 7 8 9 10 11 12 13 14 15 16 17 18 19 20 21 22 23 24 25 26 27 28 29 30 31 32 33 34 35 36 37 38 39 40 41 42 43 44 45 46 47 48 49 50
000
ASUS43 KFSD 270102
RWRFSD

WEATHER ROUNDUP FOR SE SOUTH DAKOTA/SW MINNESOTA/NW IOWA
NATIONAL WEATHER SERVICE SIOUX FALLS SD
700 PM CST SUN FEB 26 2017

NOTE: "FAIR" INDICATES FEW OR NO CLOUDS BELOW 12,000 FEET WITH NO
SIGNIFICANT WEATHER AND OR OBSTRUCTIONS TO VISIBILITY.


SDZ038>040-050-052>070-270200-
SOUTHEAST SOUTH DAKOTA

CITY           SKY/WX    TMP DP  RH WIND       PRES   REMARKS
BROOKINGS      CLEAR     31  25  78 S10       29.84R WCI  22
CHAMBERLAIN    PTCLDY    32  22  67 SW8       29.83S WCI  25
HURON          CLOUDY    37  19  48 SW7       29.82R
MADISON        FAIR      28  27  93 SW10G18   29.85R WCI  19
MITCHELL       CLEAR     33  23  66 SW9       29.86S WCI  25
SIOUX FALLS    PTCLDY    31  25  78 SW8       29.88S WCI  23
WINNER         FAIR      30  20  66 SW14      29.84R WCI  19
YANKTON        CLEAR     34  19  55 S9        29.90S WCI  26
$$

MNZ071-072-080-081-089-090-097-098-270200-
SOUTHWEST MINNESOTA

CITY           SKY/WX    TMP DP  RH WIND       PRES   REMARKS
FAIRMONT       PTCLDY    28  24  85 SW8       29.93R WCI  20
JACKSON        CLEAR     30  27  86 SW9       29.91R WCI  22
LUVERNE        CLEAR     30  27  86 S7        29.90R WCI  23
MARSHALL       FLURRIES  30  23  75 E7        29.89R WCI  23
MONTEVIDEO     CLEAR     25  19  80 E6        29.92R WCI  18
PIPESTONE      CLEAR     30  23  74 SW7       29.86R WCI  23
REDWOOD FALLS  CLEAR     29  17  61 N3        29.90R
TRACY          CLOUDY    32  26  79 E3        29.89R
WINDOM         CLEAR     32  27  80 SW9       29.89R WCI  24
WORTHINGTON    CLEAR     30  27  88 SW10      29.90R WCI  21
$$

IAZ001>003-012>014-020>022-031-032-NEZ013-014-SDZ071-270200-
NORTHWEST IOWA

CITY           SKY/WX    TMP DP  RH WIND       PRES   REMARKS
CHEROKEE       CLEAR     27  22  80 S5        29.95R WCI  22
DENISON        CLEAR     30  25  80 CALM      29.95R
ESTHERVILLE    CLEAR     27  24  89 SW9       29.92R WCI  18
LE MARS        CLEAR     30  25  80 S9        29.95R WCI  22
SHELDON        CLEAR     30  30 100 S10       29.90R WCI  21
SIOUX CITY     CLEAR     32  23  69 SE5       29.95S WCI  27
SPENCER        CLEAR     26  22  84 S7        29.93R WCI  18
STORM LAKE     CLEAR     27  23  86 SW8       29.94R WCI  18
$$

ABBREVIATIONS USED IN REMARKS
   TC - TEMPERATURE IN CELSIUS
  WCI - WIND CHILL INDEX
   HX - HEAT INDEX
  VSB - VISIBILITY




USA.gov is the U.S. government's official web portal to all federal, state and local government web resources and services.